Wind_Speed
38 38 38 38 38 39 39 40 40 41 41 41 41 41 41 41 40 39 38 35 34 32 31 31 31 32 32 32 31 30 29 28 27 26 26 26 25 25 24 24 25 26 28 30 31 31 32 32 34 36 38 37 35 34 34 34 35 35 35 36 35 35 35
37 37 37 37 37 37 38 38 38 39 39 40 40 39 39 39 39 38 37 35 33 31 31 31 31 32 32 32 32 31 30 28 27 25 25 25 24 24 23 23 23 24 25 27 29 30 30 30 32 34 37 40 40 39 37 36 35 35 35 35 35 36 36
35 35 36 36 37 37 37 37 37 37 37 37 37 36 36 36 36 35 34 33 32 32 31 32 32 32 33 33 32 31 29 27 25 24 24 24 23 23 23 22 21 22 22 23 25 26 27 28 29 31 33 37 41 43 42 40 39 39 38 38 38 38 38
34 34 33 34 34 35 35 36 35 35 35 34 33 32 32 32 32 31 31 32 33 33 33 33 33 32 32 32 31 30 28 26 24 23 23 23 23 23 23 22 21 21 21 22 23 24 25 26 27 27 29 32 36 41 45 46 45 44 42 42 42 42 41
34 34 33 33 32 32 33 32 33 33 32 31 30 30 29 29 28 28 29 30 33 35 35 35 34 33 32 31 30 29 27 26 24 23 23 22 23 23 23 23 22 21 21 22 22 23 23 25 25 25 26 28 30 34 40 44 47 47 46 46 46 45 45
35 35 34 33 33 33 33 33 33 32 32 31 30 29 29 28 27 27 28 29 31 33 35 36 36 35 33 32 31 29 28 27 25 24 23 23 22 23 23 24 23 23 22 22 22 23 24 24 25 25 26 27 28 30 33 38 43 46 47 48 47 47 46
36 36 35 34 34 34 34 34 34 34 34 34 33 32 31 29 28 27 27 28 29 30 32 34 36 36 36 35 33 31 30 29 27 26 25 23 22 22 23 24 24 24 24 23 23 23 24 25 25 25 26 27 28 29 31 34 38 41 44 45 45 45 45
40 40 39 38 38 37 36 36 36 36 36 36 36 36 35 34 33 32 32 31 31 31 31 33 35 36 37 37 36 34 33 32 31 30 29 27 26 26 26 26 26 26 26 26 26 25 25 26 26 27 27 27 28 29 30 32 36 39 41 42 42 42 42
43 43 42 42 42 42 42 41 40 39 38 37 37 37 37 38 38 39 38 38 37 35 34 34 34 36 38 39 39 38 37 36 36 35 34 34 33 32 31 30 29 29 28 28 28 28 27 27 28 28 28 28 28 29 30 32 35 39 42 42 41 41 41
43 43 44 44 44 44 45 45 45 44 43 42 41 41 40 41 41 42 42 42 42 40 39 38 37 37 38 39 41 41 41 41 40 40 39 39 39 38 37 36 35 33 32 30 29 29 30 30 30 30 30 30 29 29 30 31 33 37 41 44 44 43 42
44 44 45 45 46 46 47 49 50 49 47 45 45 45 45 45 45 45 44 44 44 44 43 42 41 41 41 41 42 43 44 44 44 44 43 43 43 42 42 41 39 38 36 34 32 30 31 31 32 32 32 32 31 31 31 31 32 34 38 43 46 46 45
48 49 50 49 49 49 49 51 53 52 49 47 48 49 49 48 48 48 47 46 45 45 45 45 45 45 45 44 44 45 45 45 46 46 46 46 46 46 45 44 43 41 40 39 37 34 33 32 33 33 34 35 34 34 33 33 33 34 35 39 44 48 49
52 53 53 53 53 53 53 54 55 55 53 50 50 51 51 50 49 49 48 48 47 47 47 47 47 47 46 46 46 45 45 44 45 45 46 47 47 47 46 45 45 44 43 43 42 40 37 35 34 34 35 36 37 37 36 35 35 35 35 36 39 43 48
52 52 53 54 55 55 55 55 56 56 54 52 51 51 52 52 52 51 50 49 49 49 49 48 48 48 47 47 47 46 45 44 44 45 46 47 47 47 47 47 46 45 44 43 44 43 41 39 37 36 36 37 38 39 39 39 38 37 37 37 38 39 42
54 55 55 56 56 56 56 56 56 56 55 54 51 51 52 52 51 51 51 51 52 52 51 50 50 50 49 49 49 49 49 49 49 49 49 49 50 49 49 48 47 45 44 43 43 44 43 41 40 38 38 38 39 39 40 41 41 41 40 40 40 40 40
58 58 58 57 57 57 57 58 59 60 60 59 56 53 53 52 51 51 52 53 54 54 53 53 53 53 52 52 52 52 53 53 53 52 51 51 51 51 50 49 48 46 44 43 43 44 44 43 41 40 40 40 40 40 41 42 43 44 44 44 43 42 42
61 60 60 59 58 58 57 57 58 59 60 61 60 58 57 56 56 56 56 56 56 56 56 55 54 54 54 54 54 54 55 54 54 53 52 51 51 50 51 51 49 46 44 41 40 41 42 42 41 40 40 41 41 42 42 43 44 45 46 47 47 46 45
63 62 62 61 60 59 58 58 58 58 58 59 59 58 57 57 58 59 59 59 59 58 56 54 53 52 52 52 52 53 54 53 52 50 49 49 48 47 48 48 45 42 38 35 34 35 38 40 41 41 42 43 43 43 44 45 46 47 48 48 49 49 50
64 63 63 62 62 61 59 59 58 58 58 58 57 57 55 56 57 58 59 60 59 57 56 54 52 51 51 50 49 51 52 51 49 48 46 45 44 41 40 37 35 34 32 31 31 32 34 37 40 42 44 45 46 47 48 47 48 48 49 50 50 51 52
65 65 64 63 63 62 61 59 59 58 58 57 57 55 55 55 56 57 58 58 57 56 55 54 52 50 49 49 48 50 50 49 48 46 44 42 40 36 31 26 27 29 32 34 35 35 36 38 41 43 44 45 47 48 49 50 51 50 50 51 52 52 53
66 66 65 65 64 63 62 60 59 59 58 57 56 55 55 55 56 56 56 56 56 55 54 53 51 49 49 48 47 48 49 49 48 47 44 41 37 34 30 29 31 35 39 40 39 39 41 41 42 44 45 45 46 47 48 50 51 52 53 53 54 54 54
67 67 66 65 64 63 62 61 60 59 59 58 57 56 55 55 55 55 54 54 54 54 54 53 52 51 50 49 48 48 49 50 50 49 47 43 40 38 38 39 41 43 44 43 42 42 42 42 43 43 44 44 45 45 46 47 49 51 54 56 57 58 58
68 68 67 66 65 63 62 61 60 60 59 59 58 58 57 57 57 56 55 54 53 53 53 53 52 53 52 51 50 50 50 51 52 52 51 49 47 45 44 45 45 46 46 46 45 45 44 44 45 45 44 44 45 45 45 46 47 49 51 54 57 60 61
70 69 67 66 65 64 63 63 62 61 61 60 60 59 59 59 59 59 58 57 56 55 55 54 54 54 54 54 54 54 53 53 53 54 55 54 53 52 50 50 49 50 50 50 49 49 48 48 48 47 46 47 47 47 46 47 48 49 51 53 55 57 59
71 70 69 67 66 65 65 64 63 63 62 62 62 62 61 62 63 63 62 61 60 60 59 58 57 58 58 58 57 57 56 55 55 56 56 57 57 56 56 55 55 55 55 56 57 56 54 52 51 50 50 50 50 50 49 49 48 49 51 54 55 56 56
72 71 70 69 67 67 66 65 64 64 64 64 64 64 63 64 65 65 64 64 63 63 63 62 61 61 61 61 60 59 58 58 57 57 57 58 59 59 59 59 60 60 61 62 64 63 61 58 56 54 53 52 52 52 52 51 51 51 52 54 55 56 56
73 72 72 70 69 68 67 65 64 63 63 65 66 65 65 67 67 66 65 65 65 65 65 64 63 63 63 62 62 61 60 60 59 59 59 60 61 62 62 63 64 65 66 67 67 67 65 62 60 58 57 55 54 53 52 52 53 54 54 55 56 56 57
73 73 72 71 70 69 68 67 66 65 65 68 69 68 68 69 68 67 67 67 67 67 67 66 66 65 64 64 63 63 63 62 62 62 62 63 64 65 66 67 68 69 70 70 69 67 65 64 62 60 59 58 57 55 54 54 54 55 56 57 57 57 58
72 72 71 70 70 69 69 68 68 69 70 71 71 70 70 70 70 70 70 70 70 69 69 69 68 68 67 66 66 66 66 65 65 65 66 66 67 68 70 71 71 72 72 71 69 67 65 64 62 61 60 59 58 57 56 56 57 57 58 59 59 59 60
69 69 68 67 67 67 67 67 67 67 68 68 68 68 69 70 71 71 72 72 72 72 72 71 71 70 70 69 68 68 67 67 67 67 68 69 70 71 72 73 72 72 71 70 68 66 64 63 63 62 61 60 59 59 58 58 59 60 60 61 61 61 62
66 66 65 64 64 64 64 64 64 64 64 64 64 65 66 67 69 70 70 72 73 73 74 73 73 72 72 71 70 69 69 68 69 69 70 70 71 72 72 72 71 70 68 67 65 64 63 63 63 62 62 61 60 60 60 61 61 62 62 63 63 64 64
65 65 64 63 62 62 61 62 62 62 62 61 61 62 63 64 66 67 68 69 71 71 72 73 73 73 72 71 71 70 70 70 70 70 71 71 71 71 70 69 67 66 65 64 64 63 63 63 63 63 63 62 62 62 62 63 63 64 65 66 66 66 67
66 66 65 64 63 62 61 61 61 61 61 61 61 61 61 62 64 65 66 67 68 69 69 70 70 70 70 69 69 69 69 69 69 69 69 69 69 68 67 66 65 65 65 65 65 65 65 65 65 64 64 63 63 64 65 65 66 67 68 68 69 70 71
70 70 69 67 66 65 64 63 63 62 61 61 61 62 61 61 62 63 64 65 66 66 66 67 67 67 67 67 67 67 67 67 66 66 66 67 67 67 66 66 66 66 66 67 67 67 66 66 66 65 65 65 66 67 67 68 68 69 70 71 72 73 74
74 74 73 73 71 69 68 67 66 65 64 63 64 64 63 62 62 63 63 64 64 64 65 65 65 65 65 65 66 66 66 65 65 65 65 65 66 66 66 66 66 67 67 67 67 66 66 66 66 66 67 68 69 69 70 70 71 72 73 74 76 77 77
77 77 77 77 76 75 73 72 71 70 69 68 67 67 66 65 65 65 64 65 65 64 64 65 64 65 65 66 66 66 66 66 65 65 64 65 65 65 66 66 66 67 67 67 67 67 67 67 68 68 69 70 71 72 72 73 74 76 77 78 79 79 80
81 81 81 81 81 80 78 77 76 75 74 72 71 72 71 70 68 68 68 68 67 67 66 66 67 67 67 68 68 68 68 67 67 66 66 66 66 66 66 67 67 68 68 68 68 68 69 70 70 71 71 72 73 74 75 76 78 79 79 80 80 79 79
Wind_Direction
272 272 272 272 272 271 272 272 273 274 274 274 274 274 275 276 277 278 278 278 278 277 277 277 278 278 277 276 274 273 272 271 270 270 269 266 265 266 267 267 263 257 255 257 259 258 256 252 248 245 244 244 243 243 243 243 242 241 242 244 245 245 245
275 275 276 276 276 276 275 275 275 274 274 274 274 274 274 275 276 277 277 276 274 272 271 272 274 275 276 275 275 274 273 272 270 270 269 267 266 267 269 270 270 266 262 261 261 259 257 254 251 246 243 241 239 239 240 239 237 237 239 242 243 244 244
281 282 282 280 279 278 277 276 275 274 274 274 274 274 274 274 274 275 274 273 270 268 266 267 269 271 273 274 275 275 274 272 271 271 269 268 267 268 269 271 273 273 271 268 266 263 261 257 254 250 246 241 238 238 238 237 236 238 241 242 242 242 242
283 284 283 281 279 278 277 277 276 275 274 274 274 274 273 273 274 274 272 270 266 265 264 264 266 269 271 272 273 274 273 272 273 272 271 270 268 267 267 269 271 273 274 271 269 267 265 262 258 254 250 245 241 238 237 237 239 241 242 243 243 243 245
282 282 281 280 279 278 277 276 275 275 276 275 274 273 274 274 274 274 272 269 266 264 263 262 264 266 268 268 268 269 270 271 273 272 271 271 270 268 267 266 266 269 271 271 269 268 267 266 264 259 254 249 245 242 239 238 239 240 240 241 243 245 247
280 281 280 280 279 277 274 273 273 273 273 273 273 273 273 274 273 273 273 272 269 266 264 263 262 263 264 264 264 264 265 267 269 270 270 270 271 271 270 268 265 264 264 265 266 266 265 266 267 265 261 256 252 247 244 241 239 239 240 241 242 244 246
279 279 279 278 278 275 273 273 273 273 273 272 272 272 272 274 274 273 273 275 274 272 269 266 264 263 263 263 262 263 264 265 267 268 268 269 271 274 276 275 272 268 264 261 260 260 260 262 264 265 264 262 259 254 250 246 241 240 242 244 245 244 243
277 277 278 278 278 276 275 274 274 275 275 275 274 274 274 274 273 273 273 275 275 275 273 271 268 266 265 265 264 263 264 265 265 266 267 269 271 275 279 280 280 277 272 266 261 258 257 257 258 260 262 262 261 258 255 251 245 240 241 245 248 248 245
277 277 279 280 279 278 277 276 274 274 275 276 276 275 275 275 274 272 272 273 274 274 274 273 270 268 265 265 265 265 264 265 265 266 267 268 270 273 277 280 281 281 277 273 267 262 257 255 255 256 258 259 260 259 257 254 250 244 241 243 247 250 250
274 275 276 278 278 279 278 277 276 275 275 275 275 274 275 275 274 274 272 271 271 272 272 273 273 272 269 267 265 264 264 264 264 266 267 269 271 273 275 277 280 280 279 275 271 266 261 257 254 253 254 255 256 258 259 257 254 249 244 242 243 246 250
271 271 272 273 275 277 278 278 278 278 277 276 275 274 275 274 274 274 273 271 270 271 272 273 274 274 274 271 269 266 264 264 264 265 266 268 270 272 274 276 277 279 278 276 274 271 266 261 257 255 253 252 252 254 256 257 256 254 249 245 244 244 246
269 269 270 271 271 274 276 278 279 279 279 278 277 277 276 275 274 274 274 273 272 272 272 273 274 274 274 274 272 270 268 266 266 266 267 268 269 271 273 274 275 276 276 275 274 272 270 266 261 258 255 254 253 252 252 253 254 254 253 249 246 245 245
270 270 270 270 270 272 273 275 277 277 277 276 276 276 275 274 274 274 274 273 272 272 271 271 272 272 271 271 270 268 268 268 268 269 269 270 270 271 272 273 274 274 275 275 273 271 270 267 264 262 260 257 255 253 252 251 252 252 253 253 250 248 246
270 270 270 270 271 272 273 274 275 275 275 275 274 273 273 273 273 273 273 271 270 270 271 270 270 269 268 267 266 264 264 265 267 269 271 271 271 271 271 272 272 273 274 274 271 268 266 264 263 263 262 261 258 256 254 253 252 252 252 252 253 252 250
268 269 269 269 270 271 271 272 271 271 273 274 274 274 273 272 271 270 269 269 268 269 268 268 268 268 268 267 266 265 264 265 267 270 272 272 271 271 272 272 272 273 273 273 271 266 262 260 260 261 262 262 261 259 257 255 254 253 252 252 252 252 252
270 270 270 269 269 270 270 270 269 269 270 271 272 272 271 270 269 269 268 268 269 269 269 269 270 269 269 269 269 268 268 269 271 273 275 275 274 273 273 273 273 273 273 272 270 264 260 257 257 259 260 261 261 260 260 258 257 256 254 253 252 252 251
272 272 272 272 272 272 272 272 271 270 270 269 269 269 269 269 269 269 270 271 271 272 272 272 271 270 269 269 270 270 271 272 273 275 276 277 276 276 275 274 272 271 270 269 267 262 259 257 257 258 260 260 260 260 260 260 259 258 257 255 254 253 252
272 273 274 274 275 275 275 275 274 273 271 270 269 269 268 267 268 268 269 270 272 273 273 271 271 270 270 270 270 270 271 272 274 275 276 277 277 278 278 274 268 264 263 263 264 262 260 258 257 258 259 259 260 260 260 260 260 259 258 257 256 255 254
272 273 273 274 275 275 275 275 274 273 272 270 270 269 269 268 268 268 268 269 270 270 270 269 269 269 270 271 271 271 273 274 276 276 278 279 280 281 280 272 258 252 255 261 267 267 264 261 259 259 260 260 260 260 260 260 259 259 258 257 257 256 256
271 272 273 274 274 275 274 273 272 271 270 270 269 269 269 268 268 268 268 269 269 269 269 269 269 269 269 270 271 273 274 276 277 278 279 280 280 280 277 263 248 250 260 268 271 270 268 265 263 263 263 263 262 260 259 259 258 257 257 256 256 256 256
271 272 272 273 273 273 273 272 271 269 268 268 268 268 268 268 268 268 268 269 269 269 269 269 270 269 269 270 271 273 275 277 278 278 277 276 274 271 266 259 258 264 269 271 271 271 271 269 266 264 263 264 263 262 260 259 258 257 255 254 254 255 255
270 271 271 272 272 271 271 270 269 268 267 267 267 267 267 267 267 267 267 268 270 270 271 271 272 271 271 272 272 274 276 277 279 279 278 276 272 268 264 263 265 268 271 271 272 273 274 273 271 268 266 265 264 263 262 261 260 258 257 255 254 253 253
268 269 269 269 269 269 269 268 267 266 266 266 266 266 266 266 265 265 266 267 268 269 271 271 272 272 273 274 274 275 275 276 278 279 279 278 276 273 271 269 269 271 273 274 275 276 278 278 277 274 272 271 269 267 265 264 262 261 259 258 256 255 255
267 267 267 267 267 267 267 266 265 265 265 265 265 265 265 265 265 265 265 266 266 267 268 268 269 270 271 272 273 274 274 275 275 277 278 279 279 278 278 277 277 278 279 281 281 281 280 281 280 279 277 277 276 273 270 267 266 265 263 261 259 258 257
266 266 265 265 265 264 264 264 264 264 264 264 264 263 264 264 265 265 266 266 266 266 266 266 266 267 269 270 271 272 273 273 273 274 275 276 277 278 279 280 281 282 283 285 286 285 283 282 281 280 279 279 279 277 274 271 269 268 267 266 264 262 260
266 265 265 264 264 263 263 263 264 264 264 263 263 263 264 264 264 265 265 266 266 266 266 265 265 265 266 268 270 271 272 272 272 272 272 273 273 274 275 276 277 278 280 282 283 284 283 282 281 280 279 278 277 276 275 274 272 271 270 269 268 266 265
266 266 266 265 264 263 262 262 262 263 263 263 262 262 263 264 264 264 265 265 265 265 265 265 265 265 265 266 267 269 270 271 271 271 270 270 270 271 272 272 273 274 276 278 279 280 280 279 279 278 278 277 275 274 273 273 273 272 272 271 270 269 269
267 266 266 266 265 264 262 261 260 260 260 261 262 262 262 263 264 264 264 264 263 263 263 264 264 264 265 265 266 267 268 269 269 269 269 269 269 270 270 271 272 273 275 276 277 277 276 276 276 276 276 275 274 274 273 273 273 272 272 272 271 271 271
265 265 265 264 264 263 262 261 259 259 259 260 261 262 262 262 262 262 262 262 262 262 262 262 262 263 263 264 265 266 267 268 268 269 269 269 269 269 270 271 272 273 274 274 274 274 274 274 273 273 273 273 273 273 273 273 273 273 273 273 273 273 272
264 264 264 263 263 263 262 261 260 260 259 259 260 260 260 260 260 260 260 261 261 261 261 262 262 262 262 263 264 265 266 267 267 268 268 268 268 269 270 271 271 272 272 272 272 272 272 272 272 272 272 272 271 272 272 272 272 273 274 275 275 275 275
264 264 264 263 262 262 262 262 261 261 261 260 259 259 259 259 260 260 260 260 261 261 261 262 262 262 263 263 264 265 265 266 266 267 267 268 269 269 270 271 272 272 272 272 272 272 272 272 272 272 272 272 271 271 271 271 272 273 274 275 275 275 275
265 265 264 264 262 261 261 261 261 261 261 260 259 259 259 259 259 260 260 261 261 261 262 262 263 263 264 264 265 265 266 266 267 268 268 269 270 271 272 272 273 273 273 273 273 273 273 273 273 273 273 272 272 271 271 271 272 272 274 275 275 275 275
267 266 266 265 264 263 262 261 260 260 260 260 260 259 259 259 259 260 260 261 261 262 262 263 264 265 266 266 267 267 267 268 268 269 270 270 271 272 273 273 273 274 274 274 274 274 275 274 274 274 273 273 272 272 272 272 273 274 275 276 277 277 278
268 268 267 266 265 264 264 262 261 260 260 260 260 260 259 259 259 260 260 261 261 262 263 264 265 266 266 267 268 268 268 268 269 269 270 271 271 272 273 273 274 274 274 274 274 274 274 274 274 274 274 273 273 273 273 274 275 276 277 278 279 279 279
267 268 268 267 267 266 265 265 264 263 262 261 261 260 260 259 259 260 260 261 261 262 263 264 264 265 266 266 266 267 267 268 268 268 269 269 270 271 271 272 273 273 273 273 273 274 274 274 274 274 274 274 275 275 276 277 278 278 279 279 280 280 280
266 267 267 267 267 267 266 266 265 265 264 263 263 262 262 261 260 261 261 261 262 262 263 264 264 264 265 265 265 266 266 266 267 267 268 268 268 269 270 271 271 271 272 273 273 273 274 274 274 274 275 275 276 277 278 278 279 279 279 280 280 280 280
265 266 266 266 267 267 266 266 266 266 265 264 264 263 262 262 261 260 260 260 261 261 262 263 263 263 263 264 264 264 265 265 266 266 267 267 267 268 269 269 270 270 271 271 272 273 273 273 274 274 275 275 276 277 278 278 278 279 279 279 280 280 281
Height
10609 10608 10608 10609 10609 10610 10610 10611 10611 10612 10613 10614 10615 10615 10615 10616 10617 10617 10618 10619 10619 10619 10619 10620 10620 10621 10621 10621 10621 10621 10621 10620 10620 10619 10619 10619 10619 10619 10619 10619 10619 10619 10619 10619 10618 10618 10619 10620 10622 10624 10625 10627 10629 10630 10631 10633 10634 10635 10636 10638 10639 10641 10642
10604 10604 10604 10604 10605 10605 10605 10606 10607 10607 10608 10609 10610 10610 10611 10611 10612 10612 10613 10614 10615 10615 10616 10616 10617 10617 10617 10617 10617 10617 10617 10617 10616 10615 10615 10615 10615 10616 10616 10616 10616 10615 10615 10615 10614 10614 10614 10615 10616 10618 10620 10622 10624 10625 10626 10628 10629 10630 10631 10633 10634 10635 10637
10599 10600 10600 10600 10600 10600 10600 10601 10602 10602 10603 10604 10605 10606 10606 10606 10607 10608 10609 10609 10610 10611 10612 10613 10613 10613 10613 10613 10613 10613 10613 10612 10612 10611 10611 10611 10612 10612 10613 10613 10613 10613 10612 10612 10611 10610 10610 10611 10612 10614 10615 10617 10618 10620 10621 10623 10624 10624 10626 10627 10628 10630 10631
10595 10595 10595 10595 10596 10596 10596 10596 10597 10598 10599 10600 10600 10601 10602 10602 10603 10604 10604 10605 10606 10607 10608 10609 10609 10610 10610 10610 10610 10609 10609 10608 10608 10608 10607 10607 10608 10608 10609 10610 10610 10610 10609 10609 10608 10607 10607 10607 10609 10610 10611 10612 10613 10614 10616 10617 10618 10619 10621 10622 10623 10624 10626
10590 10590 10591 10591 10592 10593 10593 10593 10593 10594 10595 10596 10597 10598 10598 10598 10599 10599 10600 10601 10602 10602 10603 10604 10605 10606 10606 10606 10606 10605 10605 10605 10604 10604 10604 10604 10604 10605 10605 10606 10607 10607 10607 10606 10606 10605 10604 10604 10605 10606 10607 10608 10609 10610 10610 10611 10613 10614 10615 10616 10618 10619 10620
10585 10586 10587 10587 10588 10589 10589 10590 10590 10591 10592 10593 10594 10594 10595 10595 10595 10596 10596 10597 10597 10598 10599 10599 10600 10601 10601 10602 10601 10601 10601 10601 10601 10601 10601 10601 10601 10601 10601 10602 10603 10603 10603 10603 10602 10602 10602 10601 10601 10602 10603 10603 10604 10605 10606 10607 10608 10609 10610 10611 10613 10614 10615
10582 10582 10583 10583 10584 10584 10585 10586 10586 10587 10589 10589 10590 10591 10591 10592 10592 10592 10592 10592 10593 10593 10594 10594 10595 10596 10596 10597 10597 10597 10597 10598 10598 10598 10598 10598 10598 10598 10598 10599 10599 10600 10600 10599 10599 10599 10598 10598 10598 10598 10599 10599 10600 10601 10602 10603 10604 10605 10606 10607 10608 10609 10610
10578 10578 10579 10579 10579 10580 10580 10581 10582 10583 10584 10585 10586 10587 10587 10588 10588 10588 10588 10588 10588 10588 10589 10589 10590 10590 10591 10591 10592 10592 10593 10593 10594 10594 10595 10595 10595 10595 10595 10596 10596 10596 10596 10596 10595 10595 10595 10595 10594 10595 10595 10595 10596 10596 10597 10598 10599 10601 10602 10602 10603 10604 10605
10574 10574 10574 10574 10574 10574 10575 10576 10577 10578 10580 10581 10581 10582 10582 10582 10583 10583 10583 10583 10583 10583 10584 10584 10585 10585 10586 10586 10586 10587 10588 10588 10589 10590 10590 10591 10591 10591 10591 10591 10592 10592 10592 10592 10592 10591 10591 10591 10591 10591 10591 10592 10592 10592 10593 10594 10594 10595 10597 10598 10599 10599 10600
10569 10569 10570 10570 10569 10569 10569 10569 10571 10573 10575 10576 10576 10576 10576 10577 10577 10577 10578 10578 10578 10578 10579 10579 10580 10580 10581 10581 10581 10581 10582 10583 10583 10584 10585 10585 10585 10586 10586 10586 10587 10587 10588 10587 10587 10587 10587 10587 10587 10587 10587 10587 10588 10588 10589 10589 10590 10591 10592 10593 10594 10595 10595
10565 10565 10565 10565 10565 10564 10563 10561 10563 10566 10569 10570 10570 10570 10570 10570 10570 10571 10571 10572 10573 10573 10574 10574 10575 10575 10575 10576 10576 10576 10576 10577 10578 10578 10579 10580 10580 10580 10580 10580 10581 10582 10582 10583 10582 10582 10582 10583 10583 10583 10583 10583 10583 10584 10584 10585 10585 10586 10587 10588 10589 10590 10590
10561 10561 10561 10561 10561 10560 10559 10556 10556 10559 10562 10564 10564 10564 10564 10564 10564 10565 10566 10567 10568 10568 10569 10569 10569 10570 10570 10570 10570 10571 10571 10572 10572 10573 10574 10574 10575 10575 10575 10575 10575 10576 10576 10577 10577 10577 10577 10577 10578 10578 10578 10578 10579 10579 10579 10580 10580 10581 10581 10582 10583 10584 10585
10556 10555 10555 10555 10555 10555 10554 10552 10551 10552 10555 10558 10558 10557 10557 10557 10558 10559 10560 10561 10562 10562 10563 10563 10564 10564 10564 10565 10565 10566 10566 10566 10567 10568 10568 10569 10569 10569 10569 10569 10570 10570 10571 10571 10571 10571 10571 10572 10572 10573 10573 10573 10574 10574 10574 10574 10575 10575 10576 10576 10577 10578 10579
10549 10549 10549 10549 10549 10549 10549 10548 10547 10545 10547 10550 10551 10551 10550 10551 10552 10553 10554 10555 10555 10556 10556 10557 10557 10557 10558 10558 10559 10560 10560 10561 10561 10562 10562 10562 10563 10563 10563 10563 10563 10564 10564 10564 10565 10565 10565 10565 10566 10566 10567 10567 10568 10568 10569 10569 10569 10570 10570 10571 10572 10573 10573
10543 10543 10543 10542 10543 10543 10543 10543 10543 10541 10541 10542 10543 10544 10543 10543 10544 10546 10547 10547 10548 10548 10549 10550 10550 10551 10551 10552 10553 10554 10554 10555 10555 10556 10556 10556 10556 10556 10556 10556 10556 10557 10557 10557 10558 10558 10558 10558 10559 10560 10560 10561 10561 10562 10562 10563 10563 10564 10564 10565 10566 10566 10567
10536 10536 10536 10536 10537 10537 10537 10537 10537 10537 10536 10536 10536 10536 10535 10535 10537 10538 10538 10539 10539 10540 10542 10543 10543 10544 10545 10545 10546 10547 10547 10547 10548 10548 10549 10549 10549 10549 10549 10549 10549 10549 10550 10550 10550 10550 10551 10552 10552 10553 10554 10554 10555 10556 10556 10557 10557 10557 10558 10558 10559 10560 10561
10528 10528 10528 10529 10530 10530 10530 10530 10530 10530 10529 10529 10529 10529 10529 10528 10529 10530 10530 10531 10531 10532 10534 10535 10536 10536 10537 10538 10538 10539 10539 10539 10540 10541 10541 10541 10541 10541 10541 10541 10541 10542 10542 10543 10543 10543 10544 10545 10546 10547 10547 10548 10548 10549 10550 10550 10550 10551 10551 10552 10552 10553 10554
10521 10521 10521 10521 10522 10523 10523 10523 10523 10522 10521 10521 10521 10522 10524 10523 10522 10523 10523 10523 10524 10524 10525 10527 10528 10528 10529 10530 10530 10530 10530 10531 10533 10534 10534 10534 10534 10534 10533 10532 10533 10535 10536 10536 10537 10538 10538 10539 10540 10540 10540 10541 10542 10542 10543 10543 10543 10544 10544 10544 10545 10546 10546
10514 10514 10514 10514 10514 10515 10516 10516 10515 10515 10514 10514 10513 10515 10516 10516 10515 10515 10515 10515 10516 10517 10517 10519 10520 10521 10521 10522 10522 10522 10522 10523 10525 10526 10527 10527 10527 10527 10525 10524 10525 10528 10530 10531 10531 10532 10533 10533 10534 10534 10534 10534 10535 10535 10536 10536 10536 10536 10537 10537 10538 10538 10539
10507 10507 10507 10507 10507 10507 10508 10509 10508 10508 10507 10507 10507 10508 10509 10508 10507 10508 10508 10508 10509 10509 10510 10511 10513 10514 10515 10515 10515 10514 10514 10516 10517 10518 10519 10520 10520 10520 10520 10520 10520 10523 10524 10524 10526 10527 10527 10527 10527 10527 10527 10527 10527 10527 10528 10528 10529 10529 10530 10530 10530 10531 10531
10500 10500 10500 10500 10500 10500 10500 10500 10501 10501 10500 10500 10500 10501 10502 10501 10500 10500 10501 10500 10500 10501 10502 10503 10504 10506 10507 10508 10508 10508 10507 10508 10509 10510 10512 10513 10514 10515 10516 10516 10517 10517 10517 10518 10520 10520 10520 10520 10520 10520 10521 10521 10520 10520 10520 10520 10521 10522 10522 10522 10522 10522 10522
10492 10491 10491 10492 10492 10492 10492 10492 10492 10492 10493 10493 10493 10494 10494 10494 10493 10493 10494 10493 10493 10493 10493 10495 10496 10497 10498 10500 10501 10501 10501 10500 10501 10502 10503 10506 10508 10509 10511 10511 10511 10510 10510 10511 10512 10512 10512 10512 10512 10513 10513 10513 10512 10512 10513 10513 10513 10513 10514 10514 10513 10513 10513
10483 10483 10483 10483 10483 10484 10484 10484 10484 10484 10485 10486 10486 10486 10486 10486 10486 10486 10487 10487 10486 10486 10486 10488 10489 10489 10490 10491 10492 10493 10493 10493 10493 10493 10494 10496 10498 10501 10502 10503 10503 10503 10502 10503 10504 10504 10505 10504 10504 10504 10505 10504 10504 10504 10505 10505 10505 10505 10505 10504 10504 10504 10505
10475 10475 10475 10476 10476 10476 10476 10476 10477 10477 10478 10479 10479 10478 10478 10478 10478 10478 10479 10480 10479 10480 10480 10481 10481 10481 10482 10483 10484 10485 10486 10486 10486 10486 10486 10487 10488 10490 10492 10493 10493 10493 10493 10494 10494 10494 10495 10496 10496 10496 10496 10496 10495 10495 10496 10496 10496 10496 10496 10495 10494 10495 10497
10466 10466 10467 10468 10469 10469 10469 10469 10470 10471 10471 10472 10472 10471 10471 10472 10471 10470 10471 10471 10472 10472 10473 10474 10475 10474 10474 10474 10475 10477 10478 10479 10479 10479 10479 10480 10480 10480 10481 10482 10482 10482 10483 10484 10483 10484 10485 10487 10487 10488 10488 10487 10487 10487 10487 10488 10488 10488 10487 10485 10485 10487 10488
10456 10456 10457 10459 10460 10461 10462 10463 10464 10464 10464 10464 10464 10465 10465 10464 10462 10462 10462 10463 10464 10464 10465 10466 10467 10468 10467 10467 10467 10469 10470 10471 10472 10473 10473 10473 10473 10473 10473 10474 10474 10474 10475 10476 10475 10475 10476 10478 10478 10479 10479 10480 10480 10479 10479 10479 10479 10479 10478 10477 10476 10477 10478
10445 10446 10447 10448 10450 10451 10453 10456 10457 10457 10456 10454 10454 10457 10457 10453 10453 10454 10454 10454 10455 10455 10456 10457 10459 10460 10460 10460 10461 10462 10462 10463 10464 10465 10466 10466 10466 10466 10467 10467 10467 10467 10467 10467 10467 10467 10467 10468 10469 10470 10470 10471 10471 10471 10471 10471 10470 10470 10469 10468 10468 10468 10468
10435 10436 10436 10438 10439 10440 10442 10445 10447 10448 10447 10444 10443 10447 10447 10444 10444 10446 10446 10445 10446 10446 10447 10448 10450 10451 10452 10453 10454 10455 10455 10456 10456 10457 10458 10459 10459 10459 10459 10459 10459 10458 10458 10459 10459 10459 10459 10459 10460 10461 10461 10462 10462 10462 10462 10462 10462 10461 10460 10459 10459 10459 10459
10425 10425 10426 10427 10428 10429 10431 10433 10435 10436 10436 10435 10435 10436 10436 10435 10435 10436 10436 10436 10436 10436 10437 10438 10440 10442 10444 10445 10446 10447 10447 10448 10448 10449 10450 10450 10450 10450 10450 10450 10449 10449 10449 10450 10450 10450 10450 10451 10451 10452 10452 10453 10453 10454 10453 10453 10453 10452 10451 10451 10451 10451 10450
10415 10414 10415 10416 10417 10418 10420 10422 10423 10424 10425 10426 10426 10426 10426 10425 10425 10426 10426 10427 10427 10427 10427 10428 10430 10432 10434 10436 10437 10438 10439 10439 10440 10440 10441 10441 10441 10440 10440 10440 10440 10440 10440 10440 10441 10441 10441 10442 10442 10442 10443 10444 10444 10444 10444 10444 10443 10443 10442 10442 10442 10442 10442
10404 10404 10405 10406 10407 10408 10409 10411 10412 10413 10414 10415 10416 10416 10415 10415 10415 10416 10416 10417 10417 10418 10418 10419 10421 10423 10425 10427 10428 10430 10430 10431 10431 10431 10431 10431 10430 10430 10430 10430 10430 10430 10430 10430 10431 10431 10431 10432 10432 10432 10433 10433 10434 10434 10434 10434 10434 10433 10433 10433 10433 10433 10433
10394 10394 10395 10396 10397 10398 10400 10401 10402 10402 10403 10404 10405 10405 10405 10406 10406 10407 10407 10407 10407 10408 10409 10411 10412 10414 10415 10417 10419 10420 10421 10421 10422 10421 10421 10421 10420 10420 10420 10420 10420 10420 10419 10419 10420 10420 10421 10421 10421 10422 10422 10423 10423 10423 10423 10423 10423 10424 10423 10423 10424 10424 10423
10383 10384 10385 10386 10387 10388 10390 10391 10392 10393 10394 10394 10395 10395 10396 10397 10397 10397 10398 10398 10398 10399 10400 10401 10403 10404 10406 10407 10408 10410 10410 10411 10411 10411 10411 10411 10410 10409 10409 10409 10410 10410 10409 10409 10409 10409 10410 10410 10410 10411 10411 10412 10412 10412 10412 10412 10413 10413 10413 10413 10413 10412 10412
10372 10373 10374 10375 10376 10377 10379 10380 10381 10383 10384 10385 10385 10386 10387 10388 10388 10388 10388 10389 10389 10390 10391 10392 10393 10395 10396 10397 10398 10398 10399 10400 10400 10401 10401 10401 10400 10399 10400 10400 10400 10400 10400 10399 10399 10399 10400 10400 10400 10400 10400 10401 10401 10401 10401 10402 10402 10402 10402 10402 10402 10401 10400
10362 10362 10362 10363 10365 10366 10368 10369 10370 10372 10374 10375 10375 10376 10377 10379 10379 10379 10380 10380 10380 10381 10382 10383 10384 10386 10386 10387 10388 10388 10389 10390 10390 10391 10392 10391 10391 10390 10391 10391 10391 10391 10391 10390 10390 10391 10391 10391 10391 10391 10391 10390 10390 10390 10391 10391 10392 10392 10391 10391 10390 10388 10387
10351 10351 10351 10352 10353 10355 10357 10358 10359 10360 10362 10364 10365 10366 10367 10368 10370 10370 10371 10371 10372 10373 10374 10375 10376 10377 10377 10378 10378 10379 10380 10381 10381 10383 10383 10383 10382 10383 10383 10383 10382 10382 10382 10382 10382 10382 10382 10382 10381 10381 10381 10381 10381 10381 10381 10381 10381 10380 10379 10378 10377 10375 10374
10340 10340 10340 10340 10341 10343 10345 10347 10348 10349 10351 10353 10354 10355 10355 10357 10359 10361 10361 10362 10363 10365 10366 10367 10367 10368 10368 10369 10369 10370 10371 10372 10373 10374 10375 10374 10374 10375 10375 10375 10374 10374 10374 10374 10374 10374 10373 10372 10372 10372 10372 10372 10372 10372 10371 10370 10369 10368 10367 10366 10365 10364 10362